UCA4415 KORD-KDCA

Flight info

Callsign UCA4415
Flight time 1h 28m
Altitude 37000
Route MOBLE ADIME OTENS ANEWA JERRI NUSMM BUCKO FRDMM6
Aircraft E145/M-SABDFGRW/S

Departure

Time 2026-04-24 19:17
Airport Chicago O'Hare International Airport (KORD)

Arrival

Time 2026-04-24 20:45
Airport Ronald Reagan Washington National Airport (KDCA)
Time Latitude Longitude Altitude Speed Heading
2026-04-24 18:54 41.97567 -87.90530 672 ft 0 kts 315°
2026-04-24 18:59 41.97567 -87.90531 672 ft 0 kts 315°
2026-04-24 19:01 41.97557 -87.90519 672 ft 2 kts 328°
2026-04-24 19:01 41.97543 -87.90510 672 ft 2 kts 342°
2026-04-24 19:02 41.97533 -87.90507 672 ft 2 kts 352°
2026-04-24 19:02 41.97516 -87.90504 672 ft 2 kts 352°
2026-04-24 19:02 41.97504 -87.90502 672 ft 2 kts 353°
2026-04-24 19:02 41.97492 -87.90500 672 ft 0 kts 353°
2026-04-24 19:03 41.97482 -87.90498 672 ft 2 kts 340°
2026-04-24 19:03 41.97470 -87.90486 672 ft 2 kts 301°
2026-04-24 19:03 41.97465 -87.90467 672 ft 2 kts 266°
2026-04-24 19:03 41.97470 -87.90449 672 ft 2 kts 232°
2026-04-24 19:04 41.97474 -87.90442 672 ft 1 kts 217°
2026-04-24 19:04 41.97458 -87.90444 672 ft 2 kts 173°
2026-04-24 19:04 41.97455 -87.90443 672 ft 0 kts 174°
2026-04-24 19:04 41.97456 -87.90443 672 ft 0 kts 174°
2026-04-24 19:08 41.97448 -87.90443 672 ft 3 kts 178°
2026-04-24 19:09 41.97392 -87.90444 672 ft 11 kts 180°
2026-04-24 19:09 41.97304 -87.90444 672 ft 13 kts 180°
2026-04-24 19:09 41.97219 -87.90449 672 ft 10 kts 204°
2026-04-24 19:09 41.97212 -87.90543 672 ft 11 kts 274°
2026-04-24 19:10 41.97219 -87.90660 672 ft 13 kts 277°
2026-04-24 19:10 41.97263 -87.90781 672 ft 15 kts 307°
2026-04-24 19:10 41.97338 -87.90889 672 ft 16 kts 314°
2026-04-24 19:10 41.97424 -87.91000 672 ft 15 kts 299°
2026-04-24 19:11 41.97483 -87.91063 672 ft 11 kts 358°
2026-04-24 19:11 41.97568 -87.91046 672 ft 10 kts 26°
2026-04-24 19:11 41.97606 -87.90946 672 ft 13 kts 69°
2026-04-24 19:11 41.97680 -87.90867 672 ft 15 kts
2026-04-24 19:12 41.97801 -87.90838 672 ft 19 kts
2026-04-24 19:12 41.97945 -87.90807 672 ft 22 kts
2026-04-24 19:12 41.98082 -87.90778 672 ft 19 kts
2026-04-24 19:12 41.98209 -87.90794 672 ft 19 kts 355°
2026-04-24 19:13 41.98281 -87.90770 672 ft 15 kts 66°
2026-04-24 19:13 41.98287 -87.90554 672 ft 19 kts 90°
2026-04-24 19:13 41.98287 -87.90361 672 ft 21 kts 90°
2026-04-24 19:13 41.98286 -87.90160 672 ft 22 kts 91°
2026-04-24 19:14 41.98286 -87.89954 672 ft 20 kts 89°
2026-04-24 19:14 41.98287 -87.89753 672 ft 19 kts 90°
2026-04-24 19:14 41.98278 -87.89566 672 ft 20 kts 90°
2026-04-24 19:14 41.98278 -87.89360 672 ft 23 kts 90°
2026-04-24 19:15 41.98278 -87.89130 672 ft 25 kts 89°
2026-04-24 19:15 41.98344 -87.89035 672 ft 15 kts 359°
2026-04-24 19:15 41.98389 -87.89097 672 ft 1 kts 267°
2026-04-24 19:15 41.98389 -87.89104 672 ft 0 kts 269°
2026-04-24 19:16 41.98388 -87.89599 672 ft 93 kts 270°
2026-04-24 19:16 41.98386 -87.90803 700 ft 155 kts 270°
2026-04-24 19:16 41.98381 -87.92286 1222 ft 172 kts 271°
2026-04-24 19:17 41.98389 -87.93954 1983 ft 186 kts 271°
2026-04-24 19:17 41.98730 -87.95599 2854 ft 194 kts 303°
2026-04-24 19:17 41.99833 -87.96688 3712 ft 207 kts 338°
2026-04-24 19:17 42.01223 -87.97083 4632 ft 212 kts 347°
2026-04-24 19:18 42.02667 -87.97403 5593 ft 205 kts 346°
2026-04-24 19:18 42.04014 -87.97751 6565 ft 196 kts 347°
2026-04-24 19:18 42.05321 -87.97453 7375 ft 206 kts 27°
2026-04-24 19:18 42.06340 -87.95973 8089 ft 233 kts 55°
2026-04-24 19:19 42.07203 -87.94048 8937 ft 248 kts 54°
2026-04-24 19:19 42.08110 -87.92004 9875 ft 259 kts 55°
2026-04-24 19:19 42.08869 -87.89776 10839 ft 269 kts 72°
2026-04-24 19:19 42.09184 -87.87309 11831 ft 275 kts 94°
2026-04-24 19:20 42.08912 -87.84791 12874 ft 275 kts 104°
2026-04-24 19:20 42.08510 -87.82321 13909 ft 273 kts 107°
2026-04-24 19:20 42.08073 -87.79845 14926 ft 271 kts 107°
2026-04-24 19:20 42.07638 -87.77417 15898 ft 268 kts 108°
2026-04-24 19:21 42.07202 -87.75008 16744 ft 270 kts 108°
2026-04-24 19:21 42.06742 -87.72473 17172 ft 290 kts 108°
2026-04-24 19:21 42.06234 -87.69675 17200 ft 325 kts 108°
2026-04-24 19:21 42.05666 -87.66547 17243 ft 357 kts 108°
2026-04-24 19:22 42.05266 -87.64344 17269 ft 377 kts 107°
2026-04-24 19:22 42.04414 -87.59652 18081 ft 392 kts 107°
2026-04-24 19:22 42.03767 -87.56100 19118 ft 386 kts 108°
2026-04-24 19:22 42.03125 -87.52593 19980 ft 387 kts 108°
2026-04-24 19:23 42.02495 -87.49153 20864 ft 385 kts 108°
2026-04-24 19:23 42.01854 -87.45660 21717 ft 384 kts 108°
2026-04-24 19:23 42.01219 -87.42209 22481 ft 385 kts 108°
2026-04-24 19:23 42.00574 -87.38709 23260 ft 383 kts 109°
2026-04-24 19:24 41.99938 -87.35259 24001 ft 383 kts 109°
2026-04-24 19:24 41.99300 -87.31805 24790 ft 381 kts 110°
2026-04-24 19:24 41.98654 -87.28320 25555 ft 380 kts 110°
2026-04-24 19:24 41.98015 -87.24875 26259 ft 379 kts 110°
2026-04-24 19:25 41.97383 -87.21478 26927 ft 379 kts 110°
2026-04-24 19:25 41.96740 -87.18029 27600 ft 378 kts 110°
2026-04-24 19:25 41.96105 -87.14624 28218 ft 378 kts 110°
2026-04-24 19:25 41.95467 -87.11212 28839 ft 377 kts 110°
2026-04-24 19:26 41.94840 -87.07790 29474 ft 377 kts 108°
2026-04-24 19:26 41.94535 -87.04274 30066 ft 384 kts 96°
2026-04-24 19:26 41.94617 -87.00655 30627 ft 387 kts 94°
2026-04-24 19:26 41.94693 -86.97072 31209 ft 385 kts 94°
2026-04-24 19:27 41.94756 -86.93459 31772 ft 384 kts 94°
2026-04-24 19:27 41.94812 -86.89896 32287 ft 384 kts 94°
2026-04-24 19:27 41.94867 -86.86266 32850 ft 383 kts 94°
2026-04-24 19:27 41.94919 -86.82695 33354 ft 382 kts 94°
2026-04-24 19:28 41.94970 -86.79120 33879 ft 381 kts 94°
2026-04-24 19:28 41.95019 -86.75581 34383 ft 381 kts 94°
2026-04-24 19:28 41.95067 -86.72012 34901 ft 380 kts 93°
2026-04-24 19:28 41.95114 -86.68456 35347 ft 382 kts 94°
2026-04-24 19:29 41.95206 -86.61290 36373 ft 380 kts 93°
2026-04-24 19:29 41.95250 -86.57741 36762 ft 382 kts 94°
2026-04-24 19:29 41.95293 -86.54090 36788 ft 393 kts 93°
2026-04-24 19:30 41.95336 -86.50369 36805 ft 404 kts 92°
2026-04-24 19:30 41.95380 -86.46536 36807 ft 415 kts 92°
2026-04-24 19:30 41.95423 -86.42586 36804 ft 424 kts 92°
2026-04-24 19:31 41.95509 -86.34477 36799 ft 440 kts 93°
2026-04-24 19:31 41.95590 -86.26200 36796 ft 455 kts 93°
2026-04-24 19:32 41.94929 -86.17654 36798 ft 459 kts 109°
2026-04-24 19:32 41.93261 -86.09321 36804 ft 465 kts 109°
2026-04-24 19:33 41.91596 -86.00882 36804 ft 467 kts 109°
2026-04-24 19:33 41.89931 -85.92467 36803 ft 468 kts 109°
2026-04-24 19:34 41.88242 -85.83965 36804 ft 469 kts 108°
2026-04-24 19:34 41.86556 -85.75518 36800 ft 468 kts 108°
2026-04-24 19:35 41.84861 -85.67060 36798 ft 466 kts 108°
2026-04-24 19:35 41.83174 -85.58675 36793 ft 465 kts 108°
2026-04-24 19:36 41.81480 -85.50292 36792 ft 463 kts 108°
2026-04-24 19:36 41.79796 -85.41988 36793 ft 462 kts 108°
2026-04-24 19:37 41.78106 -85.33689 36793 ft 461 kts 108°
2026-04-24 19:37 41.76411 -85.25407 36789 ft 461 kts 108°
2026-04-24 19:38 41.74717 -85.17154 36791 ft 460 kts 108°
2026-04-24 19:38 41.72997 -85.08816 36791 ft 460 kts 108°
2026-04-24 19:39 41.71293 -85.00585 36785 ft 460 kts 107°
2026-04-24 19:39 41.69580 -84.92343 36785 ft 460 kts 107°
2026-04-24 19:40 41.67847 -84.84038 36781 ft 460 kts 107°
2026-04-24 19:40 41.66478 -84.75699 36787 ft 461 kts 95°
2026-04-24 19:41 41.66177 -84.67130 36780 ft 462 kts 94°
2026-04-24 19:41 41.65816 -84.58529 36781 ft 462 kts 94°
2026-04-24 19:42 41.65442 -84.49924 36785 ft 462 kts 94°
2026-04-24 19:42 41.65060 -84.41309 36784 ft 463 kts 94°
2026-04-24 19:43 41.64674 -84.32735 36780 ft 463 kts 94°
2026-04-24 19:43 41.64278 -84.24107 36782 ft 463 kts 94°
2026-04-24 19:44 41.63879 -84.15527 36782 ft 463 kts 94°
2026-04-24 19:44 41.63470 -84.06887 36785 ft 463 kts 94°
2026-04-24 19:45 41.63057 -83.98285 36787 ft 463 kts 94°
2026-04-24 19:45 41.62636 -83.89675 36786 ft 463 kts 94°
2026-04-24 19:46 41.62209 -83.81067 36785 ft 463 kts 93°
2026-04-24 19:46 41.61778 -83.72482 36789 ft 463 kts 93°
2026-04-24 19:47 41.61337 -83.63873 36795 ft 463 kts 94°
2026-04-24 19:47 41.60038 -83.55474 36806 ft 462 kts 107°
2026-04-24 19:48 41.58189 -83.47225 36803 ft 463 kts 106°
2026-04-24 19:48 41.55408 -83.34827 36802 ft 464 kts 107°
2026-04-24 19:49 41.51681 -83.18314 36780 ft 464 kts 107°
2026-04-24 19:50 41.47913 -83.01746 36786 ft 465 kts 106°
2026-04-24 19:51 41.45087 -82.89398 36800 ft 465 kts 106°
2026-04-24 19:52 41.42232 -82.76992 36805 ft 465 kts 106°
2026-04-24 19:52 41.40330 -82.68767 36805 ft 465 kts 106°
2026-04-24 19:53 41.37879 -82.60784 36811 ft 465 kts 120°
2026-04-24 19:53 41.33900 -82.54070 36814 ft 463 kts 137°
2026-04-24 19:54 41.31582 -82.51051 36809 ft 463 kts 135°
2026-04-24 19:54 41.27029 -82.44906 36819 ft 464 kts 135°
2026-04-24 19:55 41.24034 -82.40846 36822 ft 464 kts 135°
2026-04-24 19:55 41.17997 -82.32676 36814 ft 465 kts 135°
2026-04-24 19:56 41.13441 -82.26526 36820 ft 464 kts 135°
2026-04-24 19:56 41.08902 -82.20411 36820 ft 464 kts 135°
2026-04-24 19:57 41.04358 -82.14304 36822 ft 464 kts 135°
2026-04-24 19:57 40.99840 -82.08244 36826 ft 464 kts 135°
2026-04-24 19:58 40.95268 -82.02123 36828 ft 465 kts 135°
2026-04-24 19:58 40.90711 -81.96035 36839 ft 464 kts 135°
2026-04-24 19:59 40.86199 -81.90019 36842 ft 464 kts 135°
2026-04-24 19:59 40.81620 -81.83928 36839 ft 464 kts 135°
2026-04-24 20:00 40.77021 -81.77823 36838 ft 464 kts 135°
2026-04-24 20:00 40.72484 -81.71811 36837 ft 465 kts 135°
2026-04-24 20:01 40.67905 -81.65758 36840 ft 465 kts 135°
2026-04-24 20:01 40.63339 -81.59733 36848 ft 465 kts 135°
2026-04-24 20:02 40.59494 -81.54668 36849 ft 465 kts 135°
2026-04-24 20:02 40.54139 -81.47633 36860 ft 465 kts 135°
2026-04-24 20:03 40.49523 -81.41579 36861 ft 466 kts 134°
2026-04-24 20:03 40.44925 -81.35562 36860 ft 466 kts 134°
2026-04-24 20:04 40.40314 -81.29541 36848 ft 466 kts 135°
2026-04-24 20:04 40.35712 -81.23542 36847 ft 466 kts 135°
2026-04-24 20:05 40.31103 -81.17548 36843 ft 466 kts 135°
2026-04-24 20:05 40.26456 -81.11517 36847 ft 466 kts 135°
2026-04-24 20:06 40.21822 -81.05514 36849 ft 466 kts 135°
2026-04-24 20:06 40.17216 -80.99560 36854 ft 466 kts 135°
2026-04-24 20:07 40.13326 -80.94541 36856 ft 466 kts 135°
2026-04-24 20:07 40.07910 -80.87568 36853 ft 467 kts 135°
2026-04-24 20:08 40.03271 -80.81608 36857 ft 467 kts 135°
2026-04-24 20:08 39.98753 -80.75475 36851 ft 467 kts 132°
2026-04-24 20:09 39.94253 -80.69332 36860 ft 467 kts 133°
2026-04-24 20:09 39.89725 -80.63189 36866 ft 467 kts 133°
2026-04-24 20:10 39.85235 -80.57111 36865 ft 467 kts 133°
2026-04-24 20:10 39.80745 -80.51045 36870 ft 466 kts 133°
2026-04-24 20:11 39.76219 -80.44943 36871 ft 466 kts 132°
2026-04-24 20:11 39.71686 -80.38844 36871 ft 466 kts 133°
2026-04-24 20:12 39.67184 -80.32799 36872 ft 466 kts 133°
2026-04-24 20:12 39.62655 -80.26730 36878 ft 465 kts 133°
2026-04-24 20:13 39.58129 -80.20676 36881 ft 465 kts 133°
2026-04-24 20:13 39.55839 -80.17619 36313 ft 471 kts 133°
2026-04-24 20:13 39.53569 -80.14589 35692 ft 467 kts 133°
2026-04-24 20:13 39.51302 -80.11567 35071 ft 463 kts 134°
2026-04-24 20:14 39.49047 -80.08566 34457 ft 459 kts 134°
2026-04-24 20:14 39.46841 -80.05632 33876 ft 456 kts 134°
2026-04-24 20:14 39.44621 -80.02683 33333 ft 451 kts 134°
2026-04-24 20:14 39.42433 -79.99778 32794 ft 447 kts 134°
2026-04-24 20:15 39.40270 -79.96909 32251 ft 442 kts 134°
2026-04-24 20:15 39.38134 -79.94079 31714 ft 438 kts 134°
2026-04-24 20:15 39.35988 -79.91238 31174 ft 434 kts 134°
2026-04-24 20:15 39.33895 -79.88470 30642 ft 430 kts 134°
2026-04-24 20:16 39.31944 -79.85542 30122 ft 425 kts 124°
2026-04-24 20:16 39.30465 -79.82327 30111 ft 409 kts 114°
2026-04-24 20:16 39.29392 -79.78935 29796 ft 406 kts 105°
2026-04-24 20:16 39.28741 -79.75356 29277 ft 405 kts 95°
2026-04-24 20:17 39.28493 -79.71711 28800 ft 411 kts 92°
2026-04-24 20:17 39.27937 -79.64233 27779 ft 423 kts 93°
2026-04-24 20:17 39.27633 -79.60397 27275 ft 432 kts 93°
2026-04-24 20:18 39.27427 -79.57825 26942 ft 437 kts 93°
2026-04-24 20:18 39.27005 -79.52583 26272 ft 442 kts 93°
2026-04-24 20:18 39.26685 -79.48621 25838 ft 439 kts 93°
2026-04-24 20:18 39.26365 -79.44698 25448 ft 429 kts 93°
2026-04-24 20:19 39.26057 -79.40922 25065 ft 420 kts 92°
2026-04-24 20:19 39.25755 -79.37246 24772 ft 409 kts 92°
2026-04-24 20:19 39.25459 -79.33637 24487 ft 400 kts 94°
2026-04-24 20:19 39.25166 -79.30084 24201 ft 398 kts 94°
2026-04-24 20:20 39.24873 -79.26556 23952 ft 396 kts 94°
2026-04-24 20:20 39.24581 -79.23051 23918 ft 388 kts 93°
2026-04-24 20:20 39.24284 -79.19529 23917 ft 392 kts 94°
2026-04-24 20:20 39.24020 -79.16404 23796 ft 399 kts 93°
2026-04-24 20:21 39.23702 -79.12663 23599 ft 410 kts 94°
2026-04-24 20:21 39.23383 -79.08935 23395 ft 414 kts 94°
2026-04-24 20:21 39.23065 -79.05222 23187 ft 415 kts 94°
2026-04-24 20:21 39.22743 -79.01484 22982 ft 415 kts 93°
2026-04-24 20:22 39.22426 -78.97818 22758 ft 414 kts 94°
2026-04-24 20:22 39.22088 -78.94145 22482 ft 411 kts 94°
2026-04-24 20:22 39.21735 -78.90472 22161 ft 408 kts 95°
2026-04-24 20:22 39.21385 -78.86847 21836 ft 404 kts 94°
2026-04-24 20:23 39.21040 -78.83276 21515 ft 400 kts 94°
2026-04-24 20:23 39.20693 -78.79703 21190 ft 396 kts 94°
2026-04-24 20:23 39.20351 -78.76188 20867 ft 394 kts 94°
2026-04-24 20:23 39.20009 -78.72679 20458 ft 392 kts 94°
2026-04-24 20:24 39.19782 -78.70367 20175 ft 391 kts 94°
2026-04-24 20:24 39.19329 -78.65758 19588 ft 390 kts 94°
2026-04-24 20:24 39.18983 -78.62249 19134 ft 389 kts 94°
2026-04-24 20:24 39.18642 -78.58795 18669 ft 388 kts 94°
2026-04-24 20:25 39.18301 -78.55354 18224 ft 386 kts 95°
2026-04-24 20:25 39.17960 -78.51936 17776 ft 383 kts 95°
2026-04-24 20:25 39.17623 -78.48558 17345 ft 380 kts 94°
2026-04-24 20:25 39.17287 -78.45200 16912 ft 379 kts 95°
2026-04-24 20:26 39.16948 -78.41831 16477 ft 375 kts 95°
2026-04-24 20:26 39.16612 -78.38492 16035 ft 372 kts 95°
2026-04-24 20:26 39.16082 -78.35226 15583 ft 370 kts 105°
2026-04-24 20:26 39.15309 -78.32130 15250 ft 363 kts 106°
2026-04-24 20:27 39.14547 -78.29053 14985 ft 361 kts 107°
2026-04-24 20:27 39.13777 -78.25953 14741 ft 360 kts 107°
2026-04-24 20:27 39.13015 -78.22884 14494 ft 360 kts 107°
2026-04-24 20:27 39.12248 -78.19798 14256 ft 362 kts 107°
2026-04-24 20:28 39.11479 -78.16713 14037 ft 362 kts 107°
2026-04-24 20:28 39.10715 -78.13652 14004 ft 361 kts 107°
2026-04-24 20:28 39.09941 -78.10565 14003 ft 363 kts 108°
2026-04-24 20:28 39.09147 -78.07452 13915 ft 366 kts 108°
2026-04-24 20:29 39.08622 -78.05393 13676 ft 366 kts 108°
2026-04-24 20:29 39.07584 -78.01327 13213 ft 349 kts 108°
2026-04-24 20:29 39.06827 -77.98370 12855 ft 339 kts 108°
2026-04-24 20:29 39.06102 -77.95538 12481 ft 330 kts 108°
2026-04-24 20:30 39.05386 -77.92743 12097 ft 323 kts 108°
2026-04-24 20:30 39.04686 -77.90019 11678 ft 318 kts 108°
2026-04-24 20:30 39.03992 -77.87315 11288 ft 314 kts 108°
2026-04-24 20:30 39.03301 -77.84631 10962 ft 314 kts 108°
2026-04-24 20:31 39.02613 -77.81956 10713 ft 313 kts 107°
2026-04-24 20:31 39.01931 -77.79310 10454 ft 314 kts 108°
2026-04-24 20:31 39.01234 -77.76611 10127 ft 315 kts 107°
2026-04-24 20:31 39.00544 -77.73939 9922 ft 313 kts 107°
2026-04-24 20:32 38.99862 -77.71302 9677 ft 308 kts 107°
2026-04-24 20:32 38.99189 -77.68704 9483 ft 303 kts 107°
2026-04-24 20:32 38.98524 -77.66140 9290 ft 300 kts 108°
2026-04-24 20:32 38.97726 -77.63677 9100 ft 300 kts 114°
2026-04-24 20:33 38.96856 -77.61203 8866 ft 303 kts 114°
2026-04-24 20:33 38.95988 -77.58733 8629 ft 306 kts 113°
2026-04-24 20:33 38.95116 -77.56252 8396 ft 308 kts 113°
2026-04-24 20:33 38.94240 -77.53762 8154 ft 308 kts 113°
2026-04-24 20:34 38.93364 -77.51276 8006 ft 303 kts 113°
2026-04-24 20:34 38.92516 -77.48869 7992 ft 303 kts 113°
2026-04-24 20:34 38.91663 -77.46452 7992 ft 302 kts 113°
2026-04-24 20:34 38.90750 -77.44025 7992 ft 302 kts 119°
2026-04-24 20:35 38.89717 -77.41709 7865 ft 301 kts 118°
2026-04-24 20:35 38.88811 -77.39629 7622 ft 301 kts 118°
2026-04-24 20:35 38.88020 -77.37812 7345 ft 303 kts 118°
2026-04-24 20:35 38.86983 -77.35429 6993 ft 304 kts 118°
2026-04-24 20:36 38.86023 -77.33226 6620 ft 300 kts 119°
2026-04-24 20:36 38.84147 -77.28974 6006 ft 290 kts 119°
2026-04-24 20:36 38.83042 -77.26517 5984 ft 272 kts 119°
2026-04-24 20:37 38.82065 -77.24345 5992 ft 276 kts 119°
2026-04-24 20:37 38.81106 -77.22217 5998 ft 284 kts 119°
2026-04-24 20:37 38.80122 -77.20033 5688 ft 293 kts 119°
2026-04-24 20:37 38.79108 -77.17787 5264 ft 287 kts 119°
2026-04-24 20:38 38.78131 -77.15623 5037 ft 278 kts 119°
2026-04-24 20:38 38.77180 -77.13531 4787 ft 272 kts 121°
2026-04-24 20:38 38.75893 -77.11915 4548 ft 267 kts 152°
2026-04-24 20:38 38.74134 -77.11272 4264 ft 260 kts 179°
2026-04-24 20:39 38.72332 -77.11162 3940 ft 260 kts 179°
2026-04-24 20:39 38.70499 -77.11053 3583 ft 261 kts 179°
2026-04-24 20:39 38.68688 -77.10937 3175 ft 264 kts 174°
2026-04-24 20:39 38.67002 -77.10116 2774 ft 264 kts 142°
2026-04-24 20:40 38.65911 -77.08298 2495 ft 242 kts 105°
2026-04-24 20:40 38.65870 -77.06314 2530 ft 219 kts 69°
2026-04-24 20:40 38.66732 -77.04786 2520 ft 218 kts 34°
2026-04-24 20:40 38.68038 -77.03736 2550 ft 220 kts 30°
2026-04-24 20:41 38.69371 -77.02717 2475 ft 228 kts 29°
2026-04-24 20:41 38.70887 -77.02198 2358 ft 215 kts 356°
2026-04-24 20:41 38.72253 -77.02446 2261 ft 185 kts 355°
2026-04-24 20:41 38.73466 -77.02593 2100 ft 164 kts 356°
2026-04-24 20:42 38.74589 -77.02714 1872 ft 160 kts 357°
2026-04-24 20:42 38.75693 -77.02827 1662 ft 159 kts 357°
2026-04-24 20:42 38.76801 -77.02937 1452 ft 160 kts 357°
2026-04-24 20:42 38.77920 -77.03050 1245 ft 160 kts 357°
2026-04-24 20:43 38.79022 -77.03160 1034 ft 157 kts 357°
2026-04-24 20:43 38.80056 -77.03265 833 ft 143 kts 357°
2026-04-24 20:43 38.81016 -77.03360 656 ft 143 kts 357°
2026-04-24 20:43 38.82006 -77.03460 470 ft 139 kts 357°
2026-04-24 20:44 38.82961 -77.03553 281 ft 136 kts 356°
2026-04-24 20:44 38.83893 -77.03651 124 ft 133 kts 356°
2026-04-24 20:44 38.84749 -77.03738 25 ft 118 kts 355°
2026-04-24 20:44 38.85424 -77.03802 24 ft 80 kts 355°
2026-04-24 20:45 38.85799 -77.03842 24 ft 29 kts 354°
2026-04-24 20:45 38.85913 -77.03936 24 ft 13 kts 270°
2026-04-24 20:45 38.85860 -77.03989 24 ft 11 kts 182°
2026-04-24 20:45 38.85770 -77.03977 24 ft 14 kts 175°
2026-04-24 20:46 38.85655 -77.03970 24 ft 17 kts 174°
2026-04-24 20:46 38.85521 -77.03954 24 ft 20 kts 175°
2026-04-24 20:46 38.85364 -77.03938 24 ft 23 kts 176°
2026-04-24 20:46 38.85195 -77.03921 24 ft 21 kts 175°
2026-04-24 20:47 38.85070 -77.03907 24 ft 18 kts 174°
2026-04-24 20:47 38.84938 -77.03896 24 ft 17 kts 175°
2026-04-24 20:47 38.84887 -77.03945 24 ft 11 kts 323°
2026-04-24 20:47 38.84940 -77.03957 24 ft 0 kts 357°
2026-04-24 20:48 38.84949 -77.03957 24 ft 3 kts 357°
2026-04-24 20:48 38.84986 -77.03964 24 ft 7 kts 333°
2026-04-24 20:48 38.84999 -77.04018 24 ft 5 kts 275°
2026-04-24 20:48 38.84999 -77.04031 24 ft 0 kts 276°